Previsão horária em Aban

Hoje, 17 Maio, Segunda-feira

Tempo Temperatura Precipitação Vento Pressão Humidade
00:00 +4°C° 0 mm 2 m/s 737 mmHg 65%
01:00 +4°C° 0 mm 1 m/s 737 mmHg 66%
02:00 +4°C° 0 mm 1 m/s 737 mmHg 66%
03:00 +3°C° 0 mm 1 m/s 737 mmHg 66%
04:00 +4°C° 0 mm 1 m/s 737 mmHg 62%
05:00 +5°C° 0 mm 1 m/s 737 mmHg 58%
06:00 +6°C° 0 mm 1 m/s 737 mmHg 55%
07:00 +7°C° 0 mm 1 m/s 737 mmHg 50%
08:00 +9°C° 0 mm 1 m/s 737 mmHg 45%
09:00 +9°C° 0 mm 2 m/s 737 mmHg 41%
10:00 +10°C° 0 mm 2 m/s 737 mmHg 39%
11:00 +12°C° 0 mm 2 m/s 737 mmHg 37%
12:00 +12°C° 0 mm 2 m/s 737 mmHg 35%
13:00 +11°C° 0 mm 3 m/s 737 mmHg 35%
14:00 +12°C° 0 mm 3 m/s 737 mmHg 35%
15:00 +12°C° 0 mm 3 m/s 737 mmHg 35%
16:00 +11°C° 0 mm 3 m/s 737 mmHg 38%
17:00 +11°C° 0 mm 3 m/s 737 mmHg 42%
18:00 +10°C° 0 mm 2 m/s 737 mmHg 45%
19:00 +9°C° 0 mm 2 m/s 737 mmHg 50%
20:00 +7°C° 0 mm 2 m/s 737 mmHg 55%
21:00 +6°C° 0 mm 2 m/s 737 mmHg 60%
22:00 +5°C° 0 mm 2 m/s 737 mmHg 61%
23:00 +4°C° 0 mm 2 m/s 737 mmHg 63%

Amanhã, 18 Maio, Terça-feira

Tempo Temperatura Precipitação Vento Pressão Humidade
00:00 +4°C° 0 mm 2 m/s 737 mmHg 64%
01:00 +3°C° 0 mm 2 m/s 736 mmHg 65%
02:00 +4°C° 0 mm 1 m/s 736 mmHg 66%
03:00 +3°C° 0 mm 1 m/s 736 mmHg 67%
04:00 +5°C° 0 mm 1 m/s 736 mmHg 63%
05:00 +6°C° 0 mm 1 m/s 736 mmHg 58%
06:00 +7°C° 0 mm 1 m/s 736 mmHg 53%
07:00 +8°C° 0 mm 1 m/s 736 mmHg 51%
08:00 +8°C° 0 mm 2 m/s 735 mmHg 48%
09:00 +9°C° 0 mm 2 m/s 734 mmHg 45%
10:00 +9°C° 0.1 mm 2 m/s 734 mmHg 52%
11:00 +9°C° 0.1 mm 3 m/s 733 mmHg 58%
12:00 +9°C° 0.1 mm 3 m/s 732 mmHg 64%
13:00 +8°C° 0.6 mm 3 m/s 731 mmHg 70%
14:00 +8°C° 0.6 mm 3 m/s 731 mmHg 76%
15:00 +7°C° 0.6 mm 3 m/s 730 mmHg 81%
16:00 +7°C° 0.4 mm 3 m/s 729 mmHg 81%
17:00 +7°C° 0.4 mm 3 m/s 729 mmHg 80%
18:00 +7°C° 0.4 mm 3 m/s 728 mmHg 80%
19:00 +5°C° 0 mm 3 m/s 729 mmHg 81%
20:00 +5°C° 0 mm 2 m/s 730 mmHg 82%
21:00 +5°C° 0 mm 2 m/s 730 mmHg 83%
22:00 +4°C° 0 mm 2 m/s 731 mmHg 80%
23:00 +3°C° 0 mm 2 m/s 731 mmHg 77%

Depois de amanhã, 19 Maio, Quarta-feira

Tempo Temperatura Precipitação Vento Pressão Humidade
00:00 +2°C° 0 mm 2 m/s 732 mmHg 74%
01:00 +3°C° 0 mm 1 m/s 732 mmHg 72%
02:00 +3°C° 0 mm 1 m/s 733 mmHg 69%
03:00 +1°C° 0 mm 0 m/s 733 mmHg 66%
04:00 +3°C° 0 mm 0 m/s 733 mmHg 63%
05:00 +4°C° 0 mm 0 m/s 733 mmHg 60%
06:00 +5°C° 0 mm 0 m/s 733 mmHg 57%
07:00 +7°C° 0 mm 1 m/s 733 mmHg 53%
08:00 +9°C° 0 mm 1 m/s 732 mmHg 48%
09:00 +9°C° 0 mm 2 m/s 732 mmHg 44%
10:00 +10°C° 0 mm 2 m/s 732 mmHg 41%
11:00 +12°C° 0 mm 2 m/s 731 mmHg 39%
12:00 +13°C° 0 mm 2 m/s 731 mmHg 37%
13:00 +13°C° 0 mm 2 m/s 731 mmHg 36%
14:00 +14°C° 0 mm 1 m/s 730 mmHg 35%
15:00 +14°C° 0 mm 1 m/s 730 mmHg 35%
16:00 +13°C° 0 mm 1 m/s 730 mmHg 40%
17:00 +12°C° 0 mm 2 m/s 730 mmHg 46%
18:00 +12°C° 0 mm 2 m/s 731 mmHg 52%
19:00 +9°C° 0.4 mm 2 m/s 731 mmHg 63%
20:00 +8°C° 0.4 mm 2 m/s 731 mmHg 74%
21:00 +5°C° 0.4 mm 3 m/s 732 mmHg 85%
22:00 +6°C° 0.2 mm 2 m/s 731 mmHg 87%
23:00 +5°C° 0.2 mm 2 m/s 731 mmHg 88%

20 Maio, Quinta-feira

Tempo Temperatura Precipitação Vento Pressão Humidade
00:00 +5°C° 0.2 mm 2 m/s 731 mmHg 90%
01:00 +5°C° 0.2 mm 2 m/s 731 mmHg 91%
02:00 +5°C° 0.2 mm 2 m/s 731 mmHg 92%
03:00 +4°C° 0.2 mm 2 m/s 731 mmHg 93%
04:00 +4°C° 1.2 mm 2 m/s 731 mmHg 93%
05:00 +4°C° 1.2 mm 2 m/s 732 mmHg 93%
06:00 +2°C° 1.2 mm 3 m/s 732 mmHg 93%
07:00 +2°C° 1.1 mm 3 m/s 732 mmHg 94%
08:00 +2°C° 1.1 mm 3 m/s 733 mmHg 95%
09:00 +2°C° 1.1 mm 3 m/s 733 mmHg 95%
10:00 +2°C° 0.4 mm 3 m/s 733 mmHg 93%
11:00 +3°C° 0.4 mm 3 m/s 733 mmHg 91%
12:00 +3°C° 0.4 mm 3 m/s 733 mmHg 89%
13:00 +4°C° 0.1 mm 3 m/s 734 mmHg 86%
14:00 +4°C° 0.1 mm 4 m/s 734 mmHg 82%
15:00 +5°C° 0.1 mm 4 m/s 734 mmHg 79%
16:00 +5°C° 0.1 mm 4 m/s 734 mmHg 81%
17:00 +4°C° 0.1 mm 3 m/s 735 mmHg 83%
18:00 +4°C° 0.1 mm 3 m/s 735 mmHg 86%
19:00 +4°C° 0.1 mm 3 m/s 735 mmHg 87%
20:00 +3°C° 0.1 mm 3 m/s 735 mmHg 88%
21:00 +2°C° 0.1 mm 3 m/s 735 mmHg 90%
22:00 +2°C° 0 mm 3 m/s 735 mmHg 90%
23:00 +2°C° 0 mm 3 m/s 735 mmHg 91%

21 Maio, Sexta-feira

Tempo Temperatura Precipitação Vento Pressão Humidade
00:00 +2°C° 0 mm 3 m/s 735 mmHg 91%
01:00 +2°C° 0 mm 3 m/s 736 mmHg 92%
02:00 +1°C° 0 mm 4 m/s 736 mmHg 94%
03:00 +1°C° 0 mm 4 m/s 736 mmHg 95%
04:00 +1°C° 0 mm 4 m/s 736 mmHg 92%
05:00 +3°C° 0 mm 3 m/s 737 mmHg 88%
06:00 +3°C° 0 mm 3 m/s 737 mmHg 85%
07:00 +4°C° 0 mm 3 m/s 738 mmHg 78%
08:00 +7°C° 0 mm 3 m/s 738 mmHg 71%
09:00 +8°C° 0 mm 3 m/s 738 mmHg 64%
10:00 +9°C° 0 mm 3 m/s 738 mmHg 58%
11:00 +11°C° 0 mm 3 m/s 738 mmHg 52%
12:00 +12°C° 0 mm 4 m/s 738 mmHg 46%
13:00 +12°C° 0 mm 4 m/s 739 mmHg 45%
14:00 +12°C° 0 mm 4 m/s 739 mmHg 45%
15:00 +13°C° 0 mm 4 m/s 739 mmHg 44%
16:00 +12°C° 0 mm 4 m/s 739 mmHg 47%
17:00 +12°C° 0 mm 4 m/s 739 mmHg 51%
18:00 +11°C° 0 mm 4 m/s 740 mmHg 54%
19:00 +10°C° 0 mm 3 m/s 740 mmHg 61%
20:00 +8°C° 0 mm 3 m/s 740 mmHg 67%
21:00 +5°C° 0 mm 3 m/s 741 mmHg 73%
22:00 +5°C° 0 mm 3 m/s 741 mmHg 76%
23:00 +4°C° 0 mm 3 m/s 741 mmHg 79%

22 Maio, Sábado

Tempo Temperatura Precipitação Vento Pressão Humidade
00:00 +4°C° 0 mm 3 m/s 741 mmHg 81%
01:00 +3°C° 0 mm 3 m/s 741 mmHg 84%
02:00 +3°C° 0 mm 3 m/s 741 mmHg 86%
03:00 +3°C° 0 mm 2 m/s 742 mmHg 89%
04:00 +4°C° 0 mm 3 m/s 742 mmHg 84%
05:00 +5°C° 0 mm 3 m/s 742 mmHg 79%
06:00 +7°C° 0 mm 3 m/s 742 mmHg 74%
07:00 +8°C° 0.1 mm 4 m/s 742 mmHg 67%
08:00 +10°C° 0.1 mm 4 m/s 742 mmHg 59%
09:00 +12°C° 0.1 mm 4 m/s 742 mmHg 52%
10:00 +12°C° 0.2 mm 4 m/s 742 mmHg 48%
11:00 +13°C° 0.2 mm 4 m/s 741 mmHg 45%
12:00 +13°C° 0.2 mm 4 m/s 741 mmHg 42%
13:00 +13°C° 0 mm 4 m/s 741 mmHg 39%
14:00 +14°C° 0 mm 4 m/s 741 mmHg 37%
15:00 +14°C° 0 mm 4 m/s 740 mmHg 35%
16:00 +14°C° 0 mm 4 m/s 741 mmHg 39%
17:00 +13°C° 0 mm 3 m/s 741 mmHg 44%
18:00 +12°C° 0 mm 3 m/s 741 mmHg 48%
19:00 +11°C° 0 mm 3 m/s 741 mmHg 56%
20:00 +9°C° 0 mm 3 m/s 741 mmHg 63%
21:00 +8°C° 0 mm 2 m/s 741 mmHg 70%
22:00 +7°C° 0 mm 2 m/s 741 mmHg 73%
23:00 +7°C° 0 mm 1 m/s 741 mmHg 77%
Mostrar mais

Necessitamos do seu Consentimento

A Meteoprog e os seus Fornecedores de Serviços podem armazenar e aceder a dados pessoais como cookies, identificadores do dispositivo ou outras tecnologias semelhantes existentes no seu dispositivo e processar estes dados para personalizar conteúdos e anúncios, assim como funcionalidades nas redes sociais e análise de tráfego.

  • Armazenar e/ou aceder a informações no seu dispositivo

    Os cookies, identificadores do dispositivo ou outras informações podem ser armazenados ou acedidos no seu dispositivo, para os fins acima indicados.

  • Anúncios e conteúdos personalizados, medição de anúncios e conteúdos, dados sobre o público-alvo e desenvolvimento de produtos

    Os anúncios e os conteúdos podem ser personalizados com base num perfil. Podem ser adicionados dados adicionais para uma maior personalização dos anúncios e dos conteúdos. A eficácia dos anúncios e dos conteúdos pode ser medida. Podem ser obtidas informações sobre o público que visualizou os anúncios e os conteúdos. Estes dados podem ser usados para desenvolver ou melhorar sistemas, softwares ou a experiência do utilizador.

Ao clicar em "Eu concordo”, permitirá o uso de cookies, identificadores do dispositivo e web beacons mencionados ou outras tecnologias semelhantes. As configurações do navegador do seu dispositivo podem ser alteradas.

Para certos fins, podem ser invocados interesses legítimos ao invés de consentimento. Pode ler mais informação sobre este assunto na nossa Política de Privacidade e Cookies.